Lid_Strength_Index
1 2 3 4 7 7 9 8 5 6 6 4 3 4 5 4 6 10 1 0 -0 -0 -1 -1 -1 -1 -1 -1 -1 -1 -1 -1 -1 -1 -1 -1 -1 -1 -1 -1 -1 -1 -1 -1 -1 -1 -1 -1 -1
2 2 3 5 8 10 9 6 7 5 4 4 4 4 4 6 3 3 2 0 -0 -0 -1 -1 -1 -1 -1 -1 -1 -1 -1 -1 -1 -1 -1 -1 -1 -1 -1 -1 -1 -1 -1 -1 -1 -2 -1 -1 -1
3 2 5 6 7 9 9 7 5 5 4 4 4 3 4 5 2 2 1 -0 -0 -0 -1 -1 -1 -1 -1 -1 -1 -1 -1 -1 -1 -1 -1 -1 -1 -1 -1 -1 -1 -1 -1 -1 -1 -2 -1 -1 -1
4 4 4 8 8 7 7 5 5 6 5 5 4 5 3 2 2 1 0 -0 -0 -0 -1 -1 -1 -1 -1 -1 -1 -1 -1 -1 -1 -1 -1 -1 -1 -1 -1 -1 -1 -1 -1 -1 -2 -2 -2 -2 -1
4 5 8 8 8 6 5 5 5 6 6 5 5 5 4 2 1 0 0 -0 0 -0 -1 -1 -0 -1 -1 -1 -1 -1 -1 -1 -1 -1 -1 -1 -1 -1 -1 -1 -1 -1 -2 -2 -1 -2 -2 -2 -2
6 5 9 9 8 7 6 5 5 5 5 5 6 6 4 2 1 1 0 0 -0 -0 -1 -1 -1 -1 -0 -1 -1 -1 -1 -1 -1 -1 -1 -1 -1 -1 -1 -1 -1 -1 -2 -2 -2 -2 -2 -2 -2
7 7 9 8 8 7 6 5 6 5 5 5 4 7 4 4 2 0 0 0 -0 -0 -0 -1 -1 -1 -1 -1 -1 -1 -1 -1 -1 -1 -1 -1 -1 -1 -1 -1 -1 -1 -2 -2 -2 -2 -2 -2 -2
4 6 8 8 8 7 5 6 5 6 6 4 5 6 5 4 2 0 0 0 0 -0 -0 -0 -1 -1 -1 -1 -1 -1 -1 -1 -1 -1 -1 -1 -1 -1 -1 -1 -1 -1 -2 -2 -2 -2 -2 -2 -2
3 7 9 9 8 7 5 7 6 5 6 6 5 5 4 4 3 2 1 1 1 0 -0 -0 -0 -1 -1 -1 -1 -1 -1 -1 -1 -1 -1 -1 -1 -1 -1 -2 -2 -1 -1 -2 -2 -2 -2 -2 -2
5 7 7 6 5 7 7 6 5 5 6 6 6 5 4 4 3 4 2 2 2 1 0 -0 -1 -0 -1 -1 -1 -1 -1 -1 -1 -1 -1 -1 -2 -2 -2 -2 -2 -1 -1 -1 -2 -2 -2 -2 -1
5 7 5 5 5 5 6 7 6 7 8 6 6 5 4 3 4 3 3 2 1 1 0 -0 -0 -1 -1 -0 -1 -1 -1 -1 -1 -2 -2 -2 -2 -2 -1 -1 -1 -2 -1 -1 -1 -1 -1 -2 -1
6 5 5 5 5 5 6 5 6 5 5 4 4 4 4 4 4 4 3 2 1 1 1 -0 -0 -0 -1 -1 -0 -1 -0 -1 -0 -1 -2 -1 -0 -1 -1 -1 -1 -2 -1 -2 -2 -1 -2 -2 -2
6 5 4 4 4 5 5 6 6 5 4 3 3 3 3 4 4 3 3 2 1 1 0 0 -0 -0 -0 -0 -0 -0 -0 -0 -1 -1 -2 -1 -0 -0 -1 -1 -1 -1 -1 -1 -1 -1 -1 -1 -1
5 5 5 5 5 5 6 6 5 5 4 4 4 3 3 2 2 3 3 2 1 1 0 0 -0 -1 -0 -0 -0 -0 -0 -1 -1 -1 -1 -1 -1 -1 -0 -0 -1 -1 -1 -1 -1 -1 -1 -1 -1
5 7 6 6 5 6 5 7 6 4 4 4 4 3 3 2 2 1 1 1 0 0 -0 -0 -0 -0 0 -0 -0 -0 -0 -1 -0 -0 -1 -1 -1 -1 -1 -0 -0 -1 -2 -2 -2 -1 -1 -1 -1
7 7 8 6 5 5 6 9 5 4 5 5 4 4 4 3 2 1 1 0 -0 -0 -0 -0 0 -0 -0 0 0 -0 -0 -0 -0 -0 -1 -1 -1 -1 -1 -0 -0 -1 -1 -1 -0 -0 -0 -0 -0
7 9 8 7 5 6 7 8 5 5 5 5 4 4 4 3 2 1 1 0 -0 -0 -1 -0 -0 0 0 0 0 -0 -0 -0 -0 -0 -0 -1 -0 -1 -0 -0 -1 -1 -1 -0 -0 -0 -0 0 0
9 9 8 8 6 6 7 7 5 4 4 4 4 4 3 3 3 1 1 0 -0 -0 -1 -1 -0 -0 0 0 0 0 0 0 -0 -0 -0 -0 -0 -0 -0 -0 -0 -0 -0 -0 -0 -0 -0 -0 0
7 8 8 7 6 7 7 7 6 4 4 4 4 4 3 3 2 1 1 0 0 -0 -1 -0 0 0 0 1 1 1 2 1 1 -0 -1 -0 -0 -0 -0 -0 -0 -0 0 0 -0 0 0 1 -0
7 8 8 7 6 6 7 7 6 5 5 4 4 4 3 3 2 2 1 1 0 0 -0 -0 -0 -0 1 1 1 1 1 1 0 0 -0 -1 -0 -0 -0 -0 0 -0 0 0 0 0 1 1 0
8 8 8 8 7 6 7 8 7 5 4 4 4 3 3 3 3 2 2 1 1 0 0 0 -0 -0 -0 0 1 1 1 1 1 1 1 0 -0 -0 -0 -0 0 -0 0 1 1 0 1 2 1
9 6 7 8 9 11 7 12 8 6 6 5 4 4 4 3 3 2 2 1 1 1 0 0 -0 -0 -0 -0 1 1 2 3 2 1 0 0 -0 -0 -0 -0 -0 0 0 1 0 0 1 1 2
8 6 7 8 9 9 9 11 9 6 7 6 5 5 4 3 3 2 2 1 1 1 0 0 -0 -0 -0 0 0 1 2 1 1 1 1 1 0 -0 -0 -0 -0 0 0 0 0 0 1 1 2
6 7 7 7 8 13 10 10 10 8 8 7 5 4 4 3 3 2 2 1 1 1 1 0 0 0 -0 0 0 1 2 2 2 2 2 1 1 1 0 -0 -0 -0 0 0 0 0 0 1 1
7 9 13 13 14 14 9 11 9 7 6 6 5 4 4 3 3 3 2 2 2 1 1 1 1 1 0 0 1 1 1 1 2 2 2 2 1 1 1 0 0 0 0 -0 0 0 1 1 1
8 9 13 17 15 13 9 12 9 6 5 5 4 4 4 4 3 3 2 2 2 1 1 1 1 1 1 1 1 1 1 1 1 1 1 1 1 1 0 0 0 0 0 0 0 1 1 0 1
9 10 8 12 11 13 11 9 7 6 6 5 5 4 4 3 3 3 2 2 2 1 1 1 1 1 1 1 1 1 1 1 1 1 1 1 1 1 1 0 0 0 0 0 0 1 1 0 0
8 7 12 11 17 17 12 11 10 8 7 6 5 5 4 3 3 3 2 2 1 1 1 0 0 1 1 1 1 1 1 1 1 1 2 1 1 0 1 1 1 1 0 0 0 1 0 1 1
10 10 10 10 11 17 16 12 7 7 6 6 5 4 4 3 3 3 2 2 1 1 1 1 1 1 1 1 1 1 1 1 1 2 1 1 1 0 0 1 0 1 0 0 0 0 0 1 1
8 10 9 14 14 11 12 12 6 6 5 5 5 4 4 3 3 3 2 2 2 1 1 1 1 1 1 0 1 1 1 0 1 1 1 1 0 0 0 0 0 0 0 0 0 1 1 1 1